Location: Kervinic
(48.4279°N, 4.7373°W)
Time: 09:03:01
(UTC+00:00)

SPOT 3 Rocket - Pass Details

Date: 09 April 2020
Orbit: 779 x 795 km, 98.8° (Epoch: 02 June)

Event Time Altitude Azimuth Distance (km) Brightness Sun altitude
Exits shadow 19:22:45 - 136° (SE) 3,213 6.2 -4.2°
Reaches altitude 10° 19:25:03 10° 128° (SE) 2,357 5.4 -4.5°
Maximum altitude 19:29:43 35° 64° (ENE) 1,268 4.3 -5.3°
Drops below altitude 10° 19:34:24 10° 1° (N) 2,363 6.3 -6.0°
Sets 19:36:53 0° 352° (N) 3,294 7.2 -6.4°
